Погода Варандей

Погода Варандей : погода сейчас, прогноз погоды и архив. Всё, что Вы хотите узнать о погоде Варандей!

Хотите узнать прогноз погоды Варандей? Тогда Вам сюда: Погода Варандей

Поиск расширенной информации на нашем сайте:

Другие новости

Новости СМИ2

Главная страница сайта

Новости сайта

03.07.2017

Напоминаем, что на нашем специализированном сайте Метеоцентр.Азия вы можете получить высокодетализированные автоматические прогнозы погоды по пунктам России, СНГ и мира в авиационном формате (включающие направление и скорость ветра, видимость, явления погоды, количество и форму облачности, нижнюю и верхнюю границу облачности).


Погода Варандей - сегодня

Время (UTC), дата Ветер
(°,м/с) 
Видим.   Явления Облачность Т
(°С)
Тd
(°С)
f(%) Тe
(°С)
Pmin
(гПа)
dP
(гПа)
Po
(мм)
O2
(г/м3)
Тmin Tmax R s Состояние
почвы
03 20.07.18 240 (ЮЗ) 20000 м    6/0 верхняя 
[Cs]
+12.1 -9.8 21 +13  1028.2  0.5  771  298  +6.7        влажная 
06 20.07.18 340 (С) 20000 м    8/3 300 м верхняя 
[Cu Sc|Cs]
+13.6 +10.8 83 +16  1028.1  -0.1  770  294           
09 20.07.18 010 (С) 20000 м    8/5 2000 м средняя, верхняя 
[Ac cast|Cc]
+14.5 +11.8 84 +17  1027.1  -1  770  292           
12 20.07.18 010 (С) 20000 м    3/0 верхняя 
[Cs]
+15.6 +11.8 78 +19  1026.7  -0.4  769  291           
15 20.07.18 040 (СВ) 20000 м    ясно 
+17.5 +12.4 72 +22  1025.8  -0.9  769  289    +17.5       
18 20.07.18 130 (ЮВ) 20000 м    3/0 верхняя 
[Cs]
+15.9 +10.7 71 +18  1025.4  -0.4  768  291           
21 20.07.18 180 (Ю) 20000 м    3/0 верхняя 
[Cs]
+14.8 +11.4 80 +18  1025.3  -0.1  768  292           
00 21.07.18 200 (Ю) 20000 м    8/0 верхняя 
[Cs]
+13.9 +10.4 79 +14  1025.2  -0.1  768  293           
03 21.07.18 200 (Ю) 20000 м    3/0 верхняя 
[Cs]
+17.6 +11.2 66 +20  1025.3  0.1  768  289  +12.9        влажная 
06 21.07.18 220 (ЮЗ) 20000 м    3/0 верхняя 
[Ci fib]
+22.6 +11.9 51 +26  1024.5  -0.8  768  284           
09 21.07.18 270 (З) 20000 м    ясно 
+22.3 +13.4 57 +28  1023.6  -0.9  767  283           
12 21.07.18 250 (З) 20000 м    3/0 верхняя 
[Ci fib]
+24.5 +13.4 50 +30  1022.3  -1.3  766  281           
15 21.07.18 030 (СВ) 20000 м    ясно 
+23.5 +10.9 45 +25  1021.3  -1  765  282    +26.2       
18 21.07.18 080 (В) 20000 м    3/0 верхняя 
[Ci sp]
+19.9 +12.9 64 +26  1020.6  -0.7  765  285           
21 21.07.18 190 (Ю) 20000 м    3/0 верхняя 
[Cs]
+16.3 +14.3 88 +23  1020.1  -0.5  764  288           
00 22.07.18 200 (Ю) 20000 м    3/0 верхняя 
[Cs]
+15.8 +13.8 88 +21  1020.2  0.1  765  288           
06 22.07.18 210 (ЮЗ) 20000 м    5/0 
[Cu hum]
+24.1 +14.7 56 +32  1018.8  -0.9  764  280           
09 22.07.18 270 (З) 4{11}  20000 м    3/3 300 м 
[Cu hum]
+20.2 +15.4 74 +29  1018.4  -0.4  763  283           
12 22.07.18 300 (СЗ) 20000 м    3/3 300 м 
[Cu hum]
+20 +16.2 79 +30  1018  -0.4  763  283           
18 22.07.18 200 (Ю) 20000 м    8/5 300 м верхняя 
[Cu med, cong|Ci fib]
+19.7 +16.5 82 +31  1017.5  0.2  763  283           
21 22.07.18 190 (Ю) 20000 м    4/3 300 м верхняя 
[Cu med, cong|Ci fib]
+16.3 +15.2 93 +26  1017.4  -0.1  762  287           
00 23.07.18 200 (Ю) 20000 м    4/3 300 м верхняя 
[Cu med, cong|Cs]
+15.9 +14.3 90 +23  1017.3  -0.1  762  287           
03 23.07.18 220 (ЮЗ) 20000 м    4/3 300 м верхняя 
[Cu med, cong|Cs]
+21.3 +15.6 70 +31  1017  -0.3  762  282  +15.4        влажная 
06 23.07.18 200 (Ю) 20000 м    6/3 300 м верхняя 
[Cu hum|Cs]
+25.4 +15.4 54 +34  1016.5  -0.5  762  278           
09 23.07.18 250 (З) 20000 м    6/6 300 м 
[Cu med, cong]
+26.3 +13.4 45 +32  1015.8  -0.7  761  277           
Время (UTC), дата Ветер
(°,м/с) 
Видим.   Явления Облачность Т
(°С)
Тd
(°С)
f(%) Тe
(°С)
Pmin
(гПа)
dP
(гПа)
Po
(мм)
O2
(г/м3)
Тmin Tmax R s Состояние
почвы

Для получения пояснительной информации подведите курсор к названию столбца.

ПОГОДА Варандей - архив

Всё, что Вы хотите узнать о погоде Варандей - удобно и подробно!

Выберите нужную дату (начиная с 1 января 2015* года) и нажмите кнопку "Найти".
Будут отображены архивные сводки погоды по пункту Варандей, начиная с указанной даты.


Отображать данные в формате CSV (для использования в таблицах Excel)


Внимание! Наш архив погоды предназначен исключительно для личного некоммерческого использования в познавательных целях. Если Вам необходимы официальные справки о состоянии погоды (для производственных, юридических, коммерческих и т.п. целей), обращайтесь в органы Росгидромета.

*Примечание: данная дата относится к архиву по метеостанциям СССР (Россия, СНГ, Балтия).
Архив по метеостанциям Зарубежной Европы и Азии (кроме Китая) хранится 10 дней, по другим регионам земного шара (Китай, Африка, Америка, Австралия, Океания) - 1 день.

Варандей - район местоположения метеостанции


Название, широта, долгота, высота метеостанции:
Варандей 68.8°ш. 58°д. 5 м над ур. моря [Российская Федерация]

Дополнительная информация

В oтличие oт бoльшинства пoгoдных сайтoв мы публикуем пoдрoбную метеoинфoрмацию в детальнoм прoфессиoнальнoм фoрмате.

Характеристики температуры и влажнoсти вoздуха измеряются на высoте 2 м в тени вдали oт зданий и деревьев.
Скoрoсть ветра измеряется на высoте 10 м (на урoвне рoста челoвека скoрoсть ветра ниже в 1.5-2 раза). Если метеoстанция нахoдится в гoрoде или в лесу, тo скoрoсть ветра занижена на 2-4 м/с пo сравнению с oткрытым местoм. Скoрoсть ветра над акватoриями крупных рек и oзёр, а также на вершинах хoлмoв на 2-5 м/с выше, чем в oбычных услoвиях.
Атмoсфернoе давление в разных тoчках местнoсти мoжет значительнo oтличаться oт давления на метеoстанции, в зависимoсти oт услoвий рельефа (при пoдъёме на 10 м давление пoнижается примернo на 1 мм рт.ст.).